When you browse on this site, cookies collect data to enhance your experience and personalize the content and advertising you see.
Visit our Privacy Policy to learn more. By continuing to use the site, you agree to this use of cookies and data.
  • En España
  • Lista de países
  • Para 7 días
  • Temperatura del agua
  • Mapa Satelital
  • El tiempo en el mapa
  • Informadores
  • user-avatar
    Iniciar sesión

    Tiempo cada hora Zarka

    Hoy, 20 Enero, Domingo

    Tiempo Temperatura Precipitaciones Viento Presión Humedad
    00:00 +7°C° 0 mm 3 mps 707 mmHg 67%
    01:00 +7°C° 0 mm 3 mps 707 mmHg 68%
    02:00 +7°C° 0 mm 3 mps 707 mmHg 68%
    03:00 +5°C° 0 mm 3 mps 707 mmHg 69%
    04:00 +5°C° 0 mm 3 mps 707 mmHg 69%
    05:00 +5°C° 0 mm 3 mps 707 mmHg 70%
    06:00 +5°C° 0 mm 4 mps 707 mmHg 69%
    07:00 +5°C° 0 mm 4 mps 707 mmHg 68%
    08:00 +6°C° 0 mm 4 mps 707 mmHg 69%
    09:00 +7°C° 0 mm 4 mps 707 mmHg 63%
    10:00 +8°C° 0 mm 5 mps 707 mmHg 57%
    11:00 +10°C° 0 mm 5 mps 707 mmHg 51%
    12:00 +12°C° 0 mm 5 mps 707 mmHg 46%
    13:00 +13°C° 0 mm 5 mps 707 mmHg 42%
    14:00 +13°C° 0 mm 6 mps 706 mmHg 42%
    15:00 +12°C° 0 mm 5 mps 706 mmHg 43%
    16:00 +12°C° 0 mm 4 mps 706 mmHg 44%
    17:00 +11°C° 0 mm 4 mps 706 mmHg 46%
    18:00 +11°C° 0 mm 4 mps 706 mmHg 47%
    19:00 +10°C° 0 mm 4 mps 706 mmHg 48%
    20:00 +10°C° 0 mm 3 mps 706 mmHg 48%
    21:00 +10°C° 0 mm 3 mps 706 mmHg 49%
    22:00 +9°C° 0 mm 3 mps 706 mmHg 49%
    23:00 +9°C° 0 mm 3 mps 706 mmHg 49%

    Mañana, 21 Enero, Lunes

    Tiempo Temperatura Precipitaciones Viento Presión Humedad
    00:00 +9°C° 0 mm 3 mps 706 mmHg 50%
    01:00 +9°C° 0 mm 3 mps 705 mmHg 51%
    02:00 +8°C° 0 mm 3 mps 705 mmHg 52%
    03:00 +8°C° 0 mm 3 mps 705 mmHg 54%
    04:00 +7°C° 0 mm 2 mps 705 mmHg 56%
    05:00 +7°C° 0 mm 2 mps 705 mmHg 57%
    06:00 +7°C° 0 mm 2 mps 705 mmHg 57%
    07:00 +8°C° 0 mm 2 mps 705 mmHg 56%
    08:00 +8°C° 0 mm 2 mps 706 mmHg 55%
    09:00 +9°C° 0 mm 2 mps 706 mmHg 50%
    10:00 +12°C° 0 mm 2 mps 706 mmHg 45%
    11:00 +13°C° 0 mm 1 mps 706 mmHg 40%
    12:00 +14°C° 0 mm 1 mps 706 mmHg 38%
    13:00 +15°C° 0 mm 1 mps 705 mmHg 36%
    14:00 +15°C° 0 mm 0 mps 705 mmHg 33%
    15:00 +14°C° 0 mm 0 mps 705 mmHg 38%
    16:00 +13°C° 0 mm 0 mps 705 mmHg 42%
    17:00 +12°C° 0 mm 0 mps 705 mmHg 47%
    18:00 +12°C° 0 mm 0 mps 705 mmHg 48%
    19:00 +11°C° 0 mm 0 mps 705 mmHg 49%
    20:00 +10°C° 0 mm 0 mps 705 mmHg 50%
    21:00 +10°C° 0 mm 0 mps 705 mmHg 51%
    22:00 +10°C° 0 mm 0 mps 705 mmHg 51%
    23:00 +9°C° 0 mm 0 mps 705 mmHg 52%

    Pasado mañana, 22 Enero, Martes

    Tiempo Temperatura Precipitaciones Viento Presión Humedad
    00:00 +9°C° 0 mm 0 mps 705 mmHg 52%
    01:00 +9°C° 0 mm 0 mps 705 mmHg 52%
    02:00 +8°C° 0 mm 0 mps 704 mmHg 53%
    03:00 +8°C° 0 mm 0 mps 704 mmHg 53%
    04:00 +8°C° 0 mm 0 mps 704 mmHg 53%
    05:00 +8°C° 0 mm 0 mps 704 mmHg 53%
    06:00 +9°C° 0 mm 1 mps 704 mmHg 51%
    07:00 +10°C° 0 mm 1 mps 705 mmHg 49%
    08:00 +11°C° 0 mm 1 mps 705 mmHg 48%
    09:00 +13°C° 0 mm 1 mps 705 mmHg 43%
    10:00 +14°C° 0 mm 1 mps 706 mmHg 38%
    11:00 +16°C° 0 mm 1 mps 706 mmHg 34%
    12:00 +16°C° 0 mm 1 mps 705 mmHg 33%
    13:00 +18°C° 0 mm 1 mps 705 mmHg 32%
    14:00 +17°C° 0 mm 2 mps 705 mmHg 30%
    15:00 +16°C° 0 mm 2 mps 705 mmHg 34%
    16:00 +16°C° 0 mm 2 mps 705 mmHg 37%
    17:00 +15°C° 0 mm 2 mps 704 mmHg 40%
    18:00 +14°C° 0 mm 2 mps 705 mmHg 44%
    19:00 +13°C° 0 mm 2 mps 705 mmHg 47%
    20:00 +12°C° 0 mm 1 mps 705 mmHg 51%
    21:00 +12°C° 0 mm 1 mps 705 mmHg 54%
    22:00 +11°C° 0 mm 1 mps 705 mmHg 57%
    23:00 +11°C° 0 mm 1 mps 705 mmHg 60%

    23 Enero, Miércoles

    Tiempo Temperatura Precipitaciones Viento Presión Humedad
    00:00 +10°C° 0 mm 1 mps 705 mmHg 62%
    01:00 +10°C° 0 mm 1 mps 705 mmHg 63%
    02:00 +9°C° 0 mm 1 mps 704 mmHg 65%
    03:00 +9°C° 0 mm 1 mps 704 mmHg 65%
    04:00 +8°C° 0 mm 0 mps 704 mmHg 65%
    05:00 +7°C° 0 mm 0 mps 704 mmHg 66%
    06:00 +8°C° 0 mm 0 mps 704 mmHg 62%
    07:00 +9°C° 0 mm 0 mps 705 mmHg 59%
    08:00 +10°C° 0 mm 0 mps 705 mmHg 56%
    09:00 +12°C° 0 mm 1 mps 705 mmHg 48%
    10:00 +14°C° 0 mm 2 mps 706 mmHg 40%
    11:00 +16°C° 0 mm 2 mps 706 mmHg 33%
    12:00 +16°C° 0 mm 3 mps 705 mmHg 31%
    13:00 +17°C° 0 mm 3 mps 705 mmHg 30%
    14:00 +17°C° 0 mm 3 mps 704 mmHg 28%
    15:00 +17°C° 0 mm 3 mps 704 mmHg 31%
    16:00 +16°C° 0 mm 3 mps 703 mmHg 34%
    17:00 +14°C° 0 mm 3 mps 703 mmHg 37%
    18:00 +13°C° 0 mm 3 mps 703 mmHg 38%
    19:00 +13°C° 0 mm 4 mps 703 mmHg 40%
    20:00 +12°C° 0 mm 4 mps 703 mmHg 41%
    21:00 +12°C° 0 mm 4 mps 703 mmHg 41%
    22:00 +12°C° 0 mm 4 mps 703 mmHg 41%
    23:00 +11°C° 0 mm 4 mps 703 mmHg 41%

    24 Enero, Jueves

    Tiempo Temperatura Precipitaciones Viento Presión Humedad
    00:00 +11°C° 0 mm 4 mps 703 mmHg 42%
    01:00 +11°C° 0 mm 4 mps 703 mmHg 42%
    02:00 +10°C° 0 mm 4 mps 702 mmHg 43%
    03:00 +10°C° 0 mm 4 mps 702 mmHg 44%
    04:00 +8°C° 0 mm 5 mps 702 mmHg 46%
    05:00 +8°C° 0 mm 5 mps 702 mmHg 47%
    06:00 +8°C° 0 mm 5 mps 702 mmHg 47%
    07:00 +8°C° 0 mm 5 mps 702 mmHg 47%
    08:00 +8°C° 0 mm 4 mps 702 mmHg 47%
    09:00 +11°C° 0 mm 4 mps 702 mmHg 42%
    10:00 +13°C° 0 mm 4 mps 702 mmHg 38%
    11:00 +14°C° 0 mm 4 mps 703 mmHg 33%
    12:00 +15°C° 0 mm 5 mps 702 mmHg 30%
    13:00 +17°C° 0 mm 5 mps 702 mmHg 26%
    14:00 +19°C° 0 mm 5 mps 701 mmHg 23%
    15:00 +18°C° 0 mm 4 mps 701 mmHg 26%
    16:00 +17°C° 0 mm 3 mps 701 mmHg 28%
    17:00 +16°C° 0 mm 2 mps 701 mmHg 31%
    18:00 +15°C° 0 mm 2 mps 701 mmHg 31%
    19:00 +15°C° 0 mm 2 mps 701 mmHg 32%
    20:00 +14°C° 0 mm 2 mps 701 mmHg 33%
    21:00 +14°C° 0 mm 2 mps 702 mmHg 34%
    22:00 +13°C° 0 mm 2 mps 702 mmHg 35%
    23:00 +13°C° 0 mm 2 mps 702 mmHg 36%

    25 Enero, Viernes

    Tiempo Temperatura Precipitaciones Viento Presión Humedad
    00:00 +12°C° 0 mm 2 mps 703 mmHg 46%
    01:00 +10°C° 0 mm 2 mps 703 mmHg 56%
    02:00 +9°C° 0 mm 2 mps 703 mmHg 65%
    03:00 +9°C° 0 mm 2 mps 703 mmHg 72%
    04:00 +9°C° 0 mm 1 mps 703 mmHg 78%
    05:00 +9°C° 0 mm 1 mps 703 mmHg 84%
    06:00 +9°C° 0 mm 1 mps 703 mmHg 84%
    07:00 +10°C° 0 mm 1 mps 704 mmHg 84%
    08:00 +10°C° 0 mm 1 mps 704 mmHg 83%
    09:00 +12°C° 0 mm 1 mps 704 mmHg 76%
    10:00 +13°C° 0 mm 1 mps 704 mmHg 68%
    11:00 +14°C° 0 mm 1 mps 705 mmHg 60%
    12:00 +15°C° 0 mm 1 mps 704 mmHg 55%
    13:00 +16°C° 0 mm 1 mps 704 mmHg 50%
    14:00 +18°C° 0 mm 1 mps 703 mmHg 44%
    15:00 +18°C° 0 mm 1 mps 703 mmHg 47%
    16:00 +16°C° 0 mm 1 mps 703 mmHg 51%
    17:00 +15°C° 0 mm 1 mps 703 mmHg 54%
    18:00 +15°C° 0 mm 1 mps 703 mmHg 54%
    19:00 +14°C° 0 mm 1 mps 703 mmHg 55%
    20:00 +14°C° 0 mm 2 mps 703 mmHg 55%
    21:00 +13°C° 0 mm 2 mps 702 mmHg 56%
    22:00 +13°C° 0 mm 2 mps 702 mmHg 57%
    23:00 +12°C° 0 mm 2 mps 702 mmHg 57%
    Mostrar más